Hourly Data Report for August 30, 2020

LYTTON RCS
BRITISH COLUMBIA
Current Station Operator: ECCC - MSC

50°13'28.000" N
121°34'55.000" W
225.00 m
1114746
71765
VLY

Download Data

Hourly Data (August 2020)
Hourly Data Report for August 30, 2020
TIME Temp Definition
°C
Dew Point Definition
°C
Rel Hum Definition
%
Wind Dir Definition
10's deg

Wind Spd Definition
km/h
Visibility Definition
km
Stn Press Definition
kPa
Hmdx Definition


Wind Chill Definition


Weather Definition


00:00 13.1 9.3 78 14 17   99.18     LegendNANA
01:00 12.5 9.1 80 16 6   99.25     LegendNANA
02:00 11.5 9.2 86 22 2   99.31     LegendNANA
03:00 10.4 9.3 93   0   99.35     LegendNANA
04:00 10.5 9.1 91 18 9   99.37     LegendNANA
05:00 10.0 8.9 92 19 5   99.41     LegendNANA
06:00 10.2 8.4 88 16 11   99.47     LegendNANA
07:00 10.4 8.1 86 14 13   99.49     LegendNANA
08:00 11.8 8.2 78 16 12   99.47     LegendNANA
09:00 14.3 7.8 65 13 9   99.38     LegendNANA
10:00 17.4 7.1 51 16 14   99.25     LegendNANA
11:00 20.0 6.0 40 18 33   99.09     LegendNANA
12:00 21.7 5.1 34 18 33   98.97     LegendNANA
13:00 21.5 5.1 34 19 26   98.87     LegendNANA
14:00 21.5 4.5 33 18 21   98.82     LegendNANA
15:00 21.2 4.9 34 18 29   98.79     LegendNANA
16:00 18.5 7.8 50 18 20   98.83     LegendNANA
17:00 14.7 10.1 74 21 16   98.93     LegendNANA
18:00 13.7 11.2 85 16 14   98.94     LegendNANA
19:00 13.5 9.7 78 17 24   98.87     LegendNANA
20:00 13.9 8.5 70 18 28   98.81     LegendNANA
21:00 13.8 7.8 67 18 26   98.78     LegendNANA
22:00 13.6 8.0 69 17 31   98.75     LegendNANA
23:00 13.4 8.5 72 18 13   98.81     LegendNANA

Notes on Data Quality.

Legend

  • E = Estimated
  • M = Missing
  • NA = Not Available*
  • [empty] = Indicates an unobserved value
Date modified: